Time,TemperatureF,DewpointF,PressureIn,WindDirection,WindDirectionDegrees,WindSpeedMPH,WindSpeedGustMPH,Humidity,HourlyPrecipIn,Conditions,Clouds,dailyrainin,SoftwareType,DateUTC
2013-05-23 00:01:00,69.4,67.6,29.94,SSE,152,0.0,0.0,94,0.00,RA,,0.00,WeatherDisplay:10.37,2013-05-23 04:01:00,
2013-05-23 00:06:00,69.5,67.7,29.94,South,188,0.0,0.0,94,0.00,RA,,0.00,WeatherDisplay:10.37,2013-05-23 04:06:00,
2013-05-23 00:11:00,69.7,67.9,29.94,East,92,1.1,0.0,94,0.00,CLR,,0.00,WeatherDisplay:10.37,2013-05-23 04:11:00,
2013-05-23 00:16:00,69.9,67.8,29.94,ESE,113,0.0,0.0,93,0.00,CLR,,0.00,WeatherDisplay:10.37,2013-05-23 04:16:00,
2013-05-23 00:21:00,70.0,67.9,29.94,ENE,59,2.3,0.0,93,0.00,CLR,,0.00,WeatherDisplay:10.37,2013-05-23 04:21:00,
2013-05-23 00:26:00,70.2,67.8,29.94,ESE,111,1.1,1.1,92,0.00,CLR,,0.00,WeatherDisplay:10.37,2013-05-23 04:26:00,
2013-05-23 00:31:00,70.2,67.8,29.95,SSE,160,3.5,3.5,92,0.00,CLR,,0.00,WeatherDisplay:10.37,2013-05-23 04:31:00,
2013-05-23 00:36:00,70.3,67.5,29.95,SSW,203,0.0,0.0,91,0.00,CLR,,0.00,WeatherDisplay:10.37,2013-05-23 04:36:00,
2013-05-23 00:41:00,70.3,67.5,29.95,ESE,113,0.0,0.0,91,0.00,CLR,,0.00,WeatherDisplay:10.37,2013-05-23 04:41:00,
2013-05-23 00:46:00,70.2,67.8,29.95,SW,232,0.0,0.0,92,0.00,CLR,,0.00,WeatherDisplay:10.37,2013-05-23 04:46:00,
2013-05-23 00:51:00,70.1,67.7,29.94,SE,139,1.1,1.1,92,0.00,CLR,,0.00,WeatherDisplay:10.37,2013-05-23 04:51:00,
2013-05-23 00:56:00,70.0,67.6,29.95,SW,232,3.5,3.5,92,0.00,CLR,,0.00,WeatherDisplay:10.37,2013-05-23 04:56:00,
2013-05-23 01:01:00,70.0,67.6,29.95,WNW,297,0.0,0.0,92,0.00,CLR,,0.00,WeatherDisplay:10.37,2013-05-23 05:01:00,
2013-05-23 01:06:00,69.9,67.5,29.95,South,172,1.1,1.1,92,0.00,CLR,,0.00,WeatherDisplay:10.37,2013-05-23 05:06:00,
2013-05-23 01:11:00,69.7,67.3,29.95,South,169,0.0,0.0,92,0.00,CLR,,0.00,WeatherDisplay:10.37,2013-05-23 05:11:00,
2013-05-23 01:16:00,69.6,67.2,29.95,WSW,238,0.0,0.0,92,0.00,CLR,,0.00,WeatherDisplay:10.37,2013-05-23 05:16:00,
2013-05-23 01:21:00,69.5,67.4,29.95,ESE,123,1.1,1.1,93,0.00,CLR,,0.00,WeatherDisplay:10.37,2013-05-23 05:21:00,
2013-05-23 01:26:00,69.6,67.5,29.95,East,97,0.0,0.1,93,0.00,CLR,,0.00,WeatherDisplay:10.37,2013-05-23 05:26:00,
2013-05-23 01:31:00,69.7,67.6,29.95,WSW,246,1.1,0.0,93,0.00,CLR,,0.00,WeatherDisplay:10.37,2013-05-23 05:31:00,
2013-05-23 01:36:00,69.8,67.7,29.95,SW,226,1.1,1.1,93,0.00,CLR,,0.00,WeatherDisplay:10.37,2013-05-23 05:36:00,
2013-05-23 01:41:00,69.9,67.8,29.94,SE,129,1.1,0.0,93,0.00,CLR,,0.00,WeatherDisplay:10.37,2013-05-23 05:41:00,
2013-05-23 01:46:00,70.0,67.9,29.94,East,84,1.1,0.0,93,0.00,CLR,,0.00,WeatherDisplay:10.37,2013-05-23 05:46:00,
2013-05-23 01:51:00,70.1,68.0,29.94,WNW,294,2.3,2.3,93,0.00,CLR,,0.00,WeatherDisplay:10.37,2013-05-23 05:51:00,
2013-05-23 01:56:00,70.2,68.1,29.94,East,84,3.5,3.5,93,0.00,CLR,,0.00,WeatherDisplay:10.37,2013-05-23 05:56:00,
2013-05-23 02:01:00,70.3,67.9,29.94,SE,141,3.5,3.5,92,0.00,CLR,,0.00,WeatherDisplay:10.37,2013-05-23 06:01:00,
2013-05-23 02:06:00,70.3,67.9,29.94,West,266,1.1,1.4,92,0.00,CLR,,0.00,WeatherDisplay:10.37,2013-05-23 06:06:00,
2013-05-23 02:11:00,70.4,68.0,29.94,WNW,291,3.5,3.5,92,0.00,CLR,,0.00,WeatherDisplay:10.37,2013-05-23 06:11:00,
2013-05-23 02:16:00,70.4,68.0,29.94,ESE,103,1.1,1.1,92,0.00,CLR,,0.00,WeatherDisplay:10.37,2013-05-23 06:16:00,
2013-05-23 02:21:00,70.4,68.0,29.94,North,352,0.0,0.0,92,0.00,CLR,,0.00,WeatherDisplay:10.37,2013-05-23 06:21:00,
2013-05-23 02:26:00,70.3,67.9,29.94,NW,318,0.0,0.0,92,0.00,CLR,,0.00,WeatherDisplay:10.37,2013-05-23 06:26:00,
2013-05-23 02:31:00,70.2,67.8,29.94,NNE,15,0.0,0.0,92,0.00,CLR,,0.00,WeatherDisplay:10.37,2013-05-23 06:31:00,
2013-05-23 02:36:00,70.0,67.6,29.94,North,11,0.0,0.0,92,0.00,CLR,,0.00,WeatherDisplay:10.37,2013-05-23 06:36:00,
2013-05-23 02:41:00,69.8,67.7,29.94,North,11,0.0,0.0,93,0.00,CLR,,0.00,WeatherDisplay:10.37,2013-05-23 06:41:00,
2013-05-23 02:46:00,69.6,67.5,29.94,NNE,14,0.0,0.0,93,0.00,CLR,,0.00,WeatherDisplay:10.37,2013-05-23 06:46:00,
2013-05-23 02:51:00,69.5,67.4,29.94,East,92,0.0,0.0,93,0.00,CLR,,0.00,WeatherDisplay:10.37,2013-05-23 06:51:00,
2013-05-23 02:56:00,69.4,67.6,29.94,ENE,76,0.0,0.0,94,0.00,CLR,,0.00,WeatherDisplay:10.37,2013-05-23 06:56:00,
2013-05-23 03:01:00,69.4,67.6,29.94,ENE,77,0.0,0.0,94,0.00,CLR,,0.00,WeatherDisplay:10.37,2013-05-23 07:01:00,
2013-05-23 03:07:00,69.4,67.6,29.94,WSW,238,0.0,0.0,94,0.00,CLR,,0.00,WeatherDisplay:10.37,2013-05-23 07:07:00,
2013-05-23 03:12:00,69.3,67.5,29.94,WSW,238,1.1,0.0,94,0.00,CLR,,0.00,WeatherDisplay:10.37,2013-05-23 07:12:00,
2013-05-23 03:17:00,69.3,67.5,29.94,WSW,240,1.1,1.1,94,0.00,CLR,,0.00,WeatherDisplay:10.37,2013-05-23 07:17:00,
2013-05-23 03:22:00,69.3,67.5,29.94,WSW,257,1.1,1.1,94,0.00,CLR,,0.00,WeatherDisplay:10.37,2013-05-23 07:22:00,
2013-05-23 03:27:00,69.4,67.6,29.94,WSW,257,0.0,0.0,94,0.00,CLR,,0.00,WeatherDisplay:10.37,2013-05-23 07:27:00,
2013-05-23 03:32:00,69.4,67.9,29.94,WSW,257,1.1,0.0,95,0.00,CLR,,0.00,WeatherDisplay:10.37,2013-05-23 07:32:00,
2013-05-23 03:37:00,69.4,67.9,29.94,West,260,0.0,0.0,95,0.00,CLR,,0.00,WeatherDisplay:10.37,2013-05-23 07:37:00,
2013-05-23 03:42:00,69.4,67.9,29.94,West,260,1.1,1.1,95,0.00,CLR,,0.00,WeatherDisplay:10.37,2013-05-23 07:42:00,
2013-05-23 03:47:00,69.4,67.9,29.94,West,260,0.0,0.0,95,0.00,CLR,,0.00,WeatherDisplay:10.37,2013-05-23 07:47:00,
2013-05-23 03:52:00,69.4,67.9,29.93,West,260,0.0,0.0,95,0.00,CLR,,0.00,WeatherDisplay:10.37,2013-05-23 07:52:00,
2013-05-23 03:57:00,69.4,67.9,29.93,West,260,0.0,0.0,95,0.00,CLR,,0.00,WeatherDisplay:10.37,2013-05-23 07:57:00,
2013-05-23 04:02:00,69.4,67.9,29.93,West,260,0.0,0.0,95,0.00,CLR,,0.00,WeatherDisplay:10.37,2013-05-23 08:02:00,
2013-05-23 04:07:00,69.4,67.9,29.93,West,260,0.0,0.0,95,0.00,CLR,,0.00,WeatherDisplay:10.37,2013-05-23 08:07:00,
2013-05-23 04:12:00,69.4,67.9,29.93,West,260,0.0,0.0,95,0.00,CLR,,0.00,WeatherDisplay:10.37,2013-05-23 08:12:00,
2013-05-23 04:17:00,69.4,67.9,29.93,West,260,0.0,0.0,95,0.00,CLR,,0.00,WeatherDisplay:10.37,2013-05-23 08:17:00,
2013-05-23 04:22:00,69.4,67.9,29.93,West,260,0.0,0.0,95,0.00,CLR,,0.00,WeatherDisplay:10.37,2013-05-23 08:22:00,
2013-05-23 04:27:00,69.5,68.0,29.93,West,260,0.0,0.0,95,0.00,CLR,,0.00,WeatherDisplay:10.37,2013-05-23 08:27:00,
2013-05-23 04:32:00,69.5,68.0,29.93,West,262,0.0,0.0,95,0.00,CLR,,0.00,WeatherDisplay:10.37,2013-05-23 08:32:00,
2013-05-23 04:37:00,69.5,68.0,29.93,West,260,0.0,0.0,95,0.00,CLR,,0.00,WeatherDisplay:10.37,2013-05-23 08:37:00,
2013-05-23 04:42:00,69.5,68.0,29.93,West,260,0.0,0.0,95,0.00,CLR,,0.00,WeatherDisplay:10.37,2013-05-23 08:42:00,
2013-05-23 04:47:00,69.5,68.0,29.93,SSE,162,0.0,0.0,95,0.00,CLR,,0.00,WeatherDisplay:10.37,2013-05-23 08:47:00,
2013-05-23 04:52:00,69.5,68.0,29.93,WNW,290,1.1,0.0,95,0.00,CLR,,0.00,WeatherDisplay:10.37,2013-05-23 08:52:00,
2013-05-23 04:57:00,69.5,68.0,29.93,WNW,290,0.0,0.0,95,0.00,CLR,,0.00,WeatherDisplay:10.37,2013-05-23 08:57:00,
2013-05-23 05:02:00,69.5,68.0,29.93,WNW,288,0.0,0.0,95,0.00,CLR,,0.00,WeatherDisplay:10.37,2013-05-23 09:02:00,
2013-05-23 05:07:00,69.5,68.0,29.93,WNW,288,0.0,0.0,95,0.00,CLR,,0.00,WeatherDisplay:10.37,2013-05-23 09:07:00,
2013-05-23 05:12:00,69.5,68.0,29.93,WNW,288,0.0,0.0,95,0.00,CLR,,0.00,WeatherDisplay:10.37,2013-05-23 09:12:00,
2013-05-23 05:17:00,69.4,67.9,29.93,WNW,288,0.0,0.0,95,0.00,CLR,,0.00,WeatherDisplay:10.37,2013-05-23 09:17:00,
2013-05-23 05:22:00,69.5,68.0,29.93,WNW,288,0.0,0.0,95,0.00,CLR,,0.00,WeatherDisplay:10.37,2013-05-23 09:22:00,
2013-05-23 05:27:00,69.5,68.0,29.93,WNW,288,0.0,0.0,95,0.00,CLR,,0.00,WeatherDisplay:10.37,2013-05-23 09:27:00,
2013-05-23 05:32:00,69.5,68.0,29.93,WNW,288,0.0,0.0,95,0.00,CLR,,0.00,WeatherDisplay:10.37,2013-05-23 09:32:00,
2013-05-23 05:37:00,69.6,68.1,29.93,WNW,288,0.0,0.0,95,0.00,CLR,,0.00,WeatherDisplay:10.37,2013-05-23 09:37:00,
2013-05-23 05:42:00,69.6,68.1,29.93,WNW,288,0.0,0.0,95,0.00,CLR,,0.00,WeatherDisplay:10.37,2013-05-23 09:42:00,
2013-05-23 05:47:00,69.6,68.1,29.93,South,190,0.0,0.0,95,0.00,CLR,,0.00,WeatherDisplay:10.37,2013-05-23 09:47:00,
2013-05-23 05:52:00,69.6,68.1,29.93,South,176,0.0,0.0,95,0.00,CLR,,0.00,WeatherDisplay:10.37,2013-05-23 09:52:00,
2013-05-23 05:57:00,69.6,68.1,29.93,South,176,0.0,0.0,95,0.00,CLR,,0.00,WeatherDisplay:10.37,2013-05-23 09:57:00,
2013-05-23 06:02:00,69.5,68.0,29.93,South,178,0.0,0.0,95,0.00,CLR,,0.00,WeatherDisplay:10.37,2013-05-23 10:02:00,
2013-05-23 06:08:00,69.5,68.0,29.94,South,178,0.0,0.0,95,0.00,CLR,,0.00,WeatherDisplay:10.37,2013-05-23 10:08:00,
2013-05-23 06:13:00,69.5,68.0,29.94,South,178,0.0,0.0,95,0.00,CLR,,0.00,WeatherDisplay:10.37,2013-05-23 10:13:00,
2013-05-23 06:18:00,69.5,68.0,29.94,South,176,0.0,0.0,95,0.00,CLR,,0.00,WeatherDisplay:10.37,2013-05-23 10:18:00,
2013-05-23 06:23:00,69.6,68.4,29.94,South,176,0.0,0.0,96,0.00,CLR,,0.00,WeatherDisplay:10.37,2013-05-23 10:23:00,
2013-05-23 06:42:00,69.8,68.6,29.93,South,176,0.0,0.0,96,0.00,CLR,,0.00,WeatherDisplay:10.37,2013-05-23 10:42:00,
2013-05-23 06:47:00,69.9,68.4,29.93,South,177,0.0,0.0,95,0.00,CLR,,0.00,WeatherDisplay:10.37,2013-05-23 10:47:00,
2013-05-23 06:52:00,70.0,68.5,29.93,South,177,0.0,0.0,95,0.00,CLR,,0.00,WeatherDisplay:10.37,2013-05-23 10:52:00,
2013-05-23 06:57:00,70.1,68.6,29.92,ESE,111,0.0,0.0,95,0.00,CLR,,0.00,WeatherDisplay:10.37,2013-05-23 10:57:00,
2013-05-23 07:02:00,70.1,68.6,29.92,SSE,165,1.1,1.1,95,0.00,CLR,,0.00,WeatherDisplay:10.37,2013-05-23 11:02:00,
2013-05-23 07:07:00,70.2,68.7,29.92,SE,134,2.3,2.3,95,0.00,CLR,,0.00,WeatherDisplay:10.37,2013-05-23 11:07:00,
2013-05-23 07:12:00,70.2,68.7,29.92,SW,222,0.0,0.3,95,0.00,CLR,,0.00,WeatherDisplay:10.37,2013-05-23 11:12:00,
2013-05-23 07:17:00,70.1,68.3,29.92,WSW,256,0.0,0.0,94,0.00,CLR,,0.00,WeatherDisplay:10.37,2013-05-23 11:17:00,
2013-05-23 07:22:00,70.0,68.2,29.93,WSW,238,2.3,0.0,94,0.00,CLR,,0.00,WeatherDisplay:10.37,2013-05-23 11:22:00,
2013-05-23 07:27:00,70.1,68.6,29.92,WSW,238,0.0,0.1,95,0.00,CLR,,0.00,WeatherDisplay:10.37,2013-05-23 11:27:00,
2013-05-23 07:32:00,70.2,68.7,29.92,WSW,238,0.0,0.0,95,0.00,CLR,,0.00,WeatherDisplay:10.37,2013-05-23 11:32:00,
2013-05-23 07:37:00,70.5,69.0,29.92,West,264,1.1,1.1,95,0.00,CLR,,0.00,WeatherDisplay:10.37,2013-05-23 11:37:00,
2013-05-23 07:42:00,71.1,69.3,29.92,West,263,0.0,0.0,94,0.00,CLR,,0.00,WeatherDisplay:10.37,2013-05-23 11:42:00,
2013-05-23 07:47:00,71.5,69.1,29.92,SW,222,1.1,1.1,92,0.00,CLR,,0.00,WeatherDisplay:10.37,2013-05-23 11:47:00,
2013-05-23 07:52:00,71.8,69.3,29.92,SW,222,0.0,0.0,92,0.00,CLR,,0.00,WeatherDisplay:10.37,2013-05-23 11:52:00,
2013-05-23 07:57:00,72.1,69.3,29.92,SSW,201,1.1,1.1,91,0.00,CLR,,0.00,WeatherDisplay:10.37,2013-05-23 11:57:00,
2013-05-23 08:02:00,72.2,69.1,29.92,SSW,193,1.1,0.0,90,0.00,CLR,,0.00,WeatherDisplay:10.37,2013-05-23 12:02:00,
2013-05-23 08:07:00,72.5,69.4,29.92,SW,235,0.0,0.0,90,0.00,CLR,,0.00,WeatherDisplay:10.37,2013-05-23 12:07:00,
2013-05-23 08:12:00,72.7,69.3,29.92,SW,235,2.3,2.3,89,0.00,CLR,,0.00,WeatherDisplay:10.37,2013-05-23 12:12:00,
2013-05-23 08:17:00,73.0,69.2,29.92,SW,226,1.1,1.1,88,0.00,CLR,,0.00,WeatherDisplay:10.37,2013-05-23 12:17:00,
2013-05-23 08:22:00,73.5,69.4,29.92,WSW,245,2.3,2.3,87,0.00,CLR,,0.00,WeatherDisplay:10.37,2013-05-23 12:22:00,
2013-05-23 08:27:00,74.2,70.1,29.92,West,262,1.1,1.1,87,0.00,CLR,,0.00,WeatherDisplay:10.37,2013-05-23 12:27:00,
2013-05-23 08:32:00,74.9,70.1,29.92,NNW,329,2.0,2.0,85,0.00,CLR,,0.00,WeatherDisplay:10.37,2013-05-23 12:32:00,
2013-05-23 08:37:00,75.0,69.5,29.92,SW,232,1.1,0.0,83,0.00,CLR,,0.00,WeatherDisplay:10.37,2013-05-23 12:37:00,
2013-05-23 08:42:00,75.1,69.6,29.91,SW,221,3.5,3.5,83,0.00,CLR,,0.00,WeatherDisplay:10.37,2013-05-23 12:42:00,
2013-05-23 08:47:00,75.1,69.9,29.91,SW,231,1.1,1.1,84,0.00,CLR,,0.00,WeatherDisplay:10.37,2013-05-23 12:47:00,
2013-05-23 08:52:00,75.6,69.7,29.91,ESE,117,2.3,2.3,82,0.00,CLR,,0.00,WeatherDisplay:10.37,2013-05-23 12:52:00,
2013-05-23 08:58:00,76.3,70.0,29.91,NNW,330,1.1,1.1,81,0.00,CLR,,0.00,WeatherDisplay:10.37,2013-05-23 12:58:00,
2013-05-23 09:03:00,77.2,69.8,29.91,WSW,245,3.0,3.0,78,0.00,CLR,,0.00,WeatherDisplay:10.37,2013-05-23 13:03:00,
2013-05-23 09:08:00,77.3,69.9,29.91,SW,235,1.1,1.1,78,0.00,CLR,,0.00,WeatherDisplay:10.37,2013-05-23 13:08:00,
2013-05-23 09:13:00,77.3,69.9,29.91,WSW,242,1.1,1.1,78,0.00,CLR,,0.00,WeatherDisplay:10.37,2013-05-23 13:13:00,
2013-05-23 09:18:00,77.3,69.9,29.91,SW,236,1.1,0.0,78,0.00,CLR,,0.00,WeatherDisplay:10.37,2013-05-23 13:18:00,
2013-05-23 09:23:00,77.7,70.7,29.91,SSE,156,0.0,0.0,79,0.00,CLR,,0.00,WeatherDisplay:10.37,2013-05-23 13:23:00,
2013-05-23 09:28:00,78.2,69.6,29.91,WSW,240,2.3,2.3,75,0.00,CLR,,0.00,WeatherDisplay:10.37,2013-05-23 13:28:00,
2013-05-23 09:33:00,78.5,69.9,29.91,SW,235,3.5,3.5,75,0.00,CLR,,0.00,WeatherDisplay:10.37,2013-05-23 13:33:00,
2013-05-23 09:38:00,78.4,69.4,29.91,WSW,248,3.5,3.5,74,0.00,CLR,,0.00,WeatherDisplay:10.37,2013-05-23 13:38:00,
2013-05-23 09:43:00,78.4,69.8,29.91,NW,318,2.3,2.3,75,0.00,CLR,,0.00,WeatherDisplay:10.37,2013-05-23 13:43:00,
2013-05-23 09:48:00,78.6,69.6,29.91,WSW,251,2.3,2.3,74,0.00,CLR,,0.00,WeatherDisplay:10.37,2013-05-23 13:48:00,
2013-05-23 09:53:00,78.5,69.1,29.91,SW,221,1.1,1.1,73,0.00,CLR,,0.00,WeatherDisplay:10.37,2013-05-23 13:53:00,
2013-05-23 09:58:00,78.6,69.2,29.91,WSW,244,3.5,3.5,73,0.00,CLR,,0.00,WeatherDisplay:10.37,2013-05-23 13:58:00,
2013-05-23 10:03:00,78.7,69.7,29.91,NNW,328,3.5,3.5,74,0.00,CLR,,0.00,WeatherDisplay:10.37,2013-05-23 14:03:00,
2013-05-23 10:08:00,78.8,69.0,29.91,WSW,250,3.5,3.5,72,0.00,CLR,,0.00,WeatherDisplay:10.37,2013-05-23 14:08:00,
2013-05-23 10:13:00,78.9,69.1,29.91,WSW,238,0.0,0.0,72,0.00,CLR,,0.00,WeatherDisplay:10.37,2013-05-23 14:13:00,
2013-05-23 10:18:00,79.0,69.2,29.91,NW,306,1.1,0.0,72,0.00,CLR,,0.00,WeatherDisplay:10.37,2013-05-23 14:18:00,
2013-05-23 10:23:00,79.4,69.2,29.91,WSW,253,2.3,2.3,71,0.00,CLR,,0.00,WeatherDisplay:10.37,2013-05-23 14:23:00,
2013-05-23 10:28:00,79.7,69.0,29.91,WSW,244,3.5,3.5,70,0.00,CLR,,0.00,WeatherDisplay:10.37,2013-05-23 14:28:00,
2013-05-23 10:33:00,80.2,69.5,29.91,WSW,240,2.0,2.0,70,0.00,CLR,,0.00,WeatherDisplay:10.37,2013-05-23 14:33:00,
2013-05-23 10:38:00,80.2,68.2,29.91,WNW,288,2.3,2.3,67,0.00,CLR,,0.00,WeatherDisplay:10.37,2013-05-23 14:38:00,
2013-05-23 10:43:00,80.4,68.0,29.91,WSW,243,3.5,3.5,66,0.00,CLR,,0.00,WeatherDisplay:10.37,2013-05-23 14:43:00,
2013-05-23 10:48:00,80.7,66.9,29.91,SSW,203,2.3,2.3,63,0.00,CLR,,0.00,WeatherDisplay:10.37,2013-05-23 14:48:00,
2013-05-23 10:53:00,81.4,68.5,29.91,SW,226,1.1,1.1,65,0.00,CLR,,0.00,WeatherDisplay:10.37,2013-05-23 14:53:00,
2013-05-23 10:58:00,82.2,69.3,29.91,WSW,246,3.5,3.5,65,0.00,CLR,,0.00,WeatherDisplay:10.37,2013-05-23 14:58:00,
2013-05-23 11:03:00,82.7,67.9,29.90,SSW,208,1.1,0.0,61,0.00,CLR,,0.00,WeatherDisplay:10.37,2013-05-23 15:03:00,
2013-05-23 11:08:00,83.2,67.9,29.91,North,359,3.5,3.5,60,0.00,CLR,,0.00,WeatherDisplay:10.37,2013-05-23 15:08:00,
2013-05-23 11:13:00,83.3,68.0,29.90,WSW,239,2.3,2.3,60,0.00,CLR,,0.00,WeatherDisplay:10.37,2013-05-23 15:13:00,
2013-05-23 11:18:00,83.4,69.0,29.90,ESE,115,3.5,3.5,62,0.00,CLR,,0.00,WeatherDisplay:10.37,2013-05-23 15:18:00,
2013-05-23 11:23:00,83.5,68.6,29.90,SE,124,2.3,2.3,61,0.00,CLR,,0.00,WeatherDisplay:10.37,2013-05-23 15:23:00,
2013-05-23 11:28:00,83.9,67.5,29.90,WNW,284,3.5,3.5,58,0.00,CLR,,0.00,WeatherDisplay:10.37,2013-05-23 15:28:00,
2013-05-23 11:33:00,83.7,68.3,29.90,SSW,197,2.3,2.3,60,0.00,CLR,,0.00,WeatherDisplay:10.37,2013-05-23 15:33:00,
2013-05-23 11:38:00,83.7,67.8,29.90,NNW,345,3.5,3.5,59,0.00,CLR,,0.00,WeatherDisplay:10.37,2013-05-23 15:38:00,
2013-05-23 11:43:00,84.0,68.6,29.90,WSW,255,3.0,3.0,60,0.00,CLR,,0.00,WeatherDisplay:10.37,2013-05-23 15:43:00,
2013-05-23 11:48:00,83.4,67.6,29.90,WSW,238,3.5,3.5,59,0.00,CLR,,0.00,WeatherDisplay:10.37,2013-05-23 15:48:00,
2013-05-23 11:53:00,83.8,69.4,29.90,ESE,120,3.5,3.5,62,0.00,CLR,,0.00,WeatherDisplay:10.37,2013-05-23 15:53:00,
2013-05-23 11:58:00,84.4,68.5,29.90,SSE,155,2.3,2.3,59,0.00,CLR,,0.00,WeatherDisplay:10.37,2013-05-23 15:58:00,
2013-05-23 12:03:00,85.0,68.6,29.90,West,271,5.8,5.8,58,0.00,CLR,,0.00,WeatherDisplay:10.37,2013-05-23 16:03:00,
2013-05-23 12:08:00,84.6,68.2,29.89,SSW,205,2.3,2.3,58,0.00,CLR,,0.00,WeatherDisplay:10.37,2013-05-23 16:08:00,
2013-05-23 12:13:00,85.0,69.6,29.89,SSE,167,3.5,3.5,60,0.00,CLR,,0.00,WeatherDisplay:10.37,2013-05-23 16:13:00,
2013-05-23 12:18:00,84.3,68.9,29.89,WSW,255,1.1,1.1,60,0.00,CLR,,0.00,WeatherDisplay:10.37,2013-05-23 16:18:00,
2013-05-23 12:23:00,83.7,68.3,29.89,WSW,255,1.1,1.1,60,0.00,CLR,,0.00,WeatherDisplay:10.37,2013-05-23 16:23:00,
2013-05-23 12:28:00,83.5,68.6,29.89,NW,309,3.0,3.0,61,0.00,CLR,,0.00,WeatherDisplay:10.37,2013-05-23 16:28:00,
2013-05-23 12:33:00,83.1,68.3,29.89,WSW,240,1.1,1.1,61,0.00,CLR,,0.00,WeatherDisplay:10.37,2013-05-23 16:33:00,
2013-05-23 12:38:00,83.2,69.8,29.89,WSW,242,1.1,0.0,64,0.00,CLR,,0.00,WeatherDisplay:10.37,2013-05-23 16:38:00,
2013-05-23 12:43:00,83.0,67.7,29.88,SW,217,3.5,3.5,60,0.00,CLR,,0.00,WeatherDisplay:10.37,2013-05-23 16:43:00,
2013-05-23 12:48:00,83.7,68.8,29.88,WSW,257,2.3,2.3,61,0.00,CLR,,0.00,WeatherDisplay:10.37,2013-05-23 16:48:00,
2013-05-23 12:53:00,84.7,69.3,29.88,WSW,248,3.5,3.5,60,0.00,CLR,,0.00,WeatherDisplay:10.37,2013-05-23 16:53:00,
2013-05-23 12:58:00,84.3,67.9,29.88,SW,224,2.3,2.3,58,0.00,CLR,,0.00,WeatherDisplay:10.37,2013-05-23 16:58:00,
2013-05-23 13:03:00,84.2,68.3,29.87,West,274,1.1,1.1,59,0.00,CLR,,0.00,WeatherDisplay:10.37,2013-05-23 17:03:00,
2013-05-23 13:08:00,84.1,69.2,29.87,West,274,0.0,0.0,61,0.00,CLR,,0.00,WeatherDisplay:10.37,2013-05-23 17:08:00,
2013-05-23 13:13:00,84.0,69.1,29.87,WNW,293,0.0,0.0,61,0.00,CLR,,0.00,WeatherDisplay:10.37,2013-05-23 17:13:00,
2013-05-23 13:18:00,83.8,69.4,29.87,West,269,1.1,1.1,62,0.00,CLR,,0.00,WeatherDisplay:10.37,2013-05-23 17:18:00,
2013-05-23 13:23:00,83.5,68.6,29.86,WSW,248,1.1,1.1,61,0.00,CLR,,0.00,WeatherDisplay:10.37,2013-05-23 17:23:00,
2013-05-23 13:28:00,83.6,68.7,29.86,SW,228,0.0,0.7,61,0.00,CLR,,0.00,WeatherDisplay:10.37,2013-05-23 17:28:00,
2013-05-23 13:33:00,83.6,69.7,29.86,SW,233,1.1,1.1,63,0.00,CLR,,0.00,WeatherDisplay:10.37,2013-05-23 17:33:00,
2013-05-23 13:38:00,83.2,68.8,29.86,WSW,248,1.1,1.1,62,0.00,CLR,,0.00,WeatherDisplay:10.37,2013-05-23 17:38:00,
2013-05-23 13:43:00,82.8,69.4,29.85,WSW,248,0.0,0.0,64,0.00,CLR,,0.00,WeatherDisplay:10.37,2013-05-23 17:43:00,
2013-05-23 13:48:00,82.6,70.1,29.85,WSW,248,0.0,0.0,66,0.00,CLR,,0.00,WeatherDisplay:10.37,2013-05-23 17:48:00,
2013-05-23 13:53:00,81.8,72.3,29.85,ESE,110,1.1,1.1,73,0.07,RA,,0.07,WeatherDisplay:10.37,2013-05-23 17:53:00,
2013-05-23 13:58:00,79.6,70.2,29.86,ESE,105,0.0,0.1,73,0.10,RA,,0.10,WeatherDisplay:10.37,2013-05-23 17:58:00,
2013-05-23 14:03:00,77.5,70.1,29.86,WSW,245,0.0,0.0,78,0.14,RA,,0.14,WeatherDisplay:10.37,2013-05-23 18:03:00,
2013-05-23 14:08:00,76.4,70.9,29.86,SSE,152,0.0,0.0,83,0.18,RA,,0.18,WeatherDisplay:10.37,2013-05-23 18:08:00,
2013-05-23 14:13:00,75.0,70.2,29.86,ESE,115,3.5,3.5,85,0.20,RA,,0.20,WeatherDisplay:10.37,2013-05-23 18:13:00,
2013-05-23 14:18:00,74.1,70.0,29.86,SE,144,2.3,2.3,87,0.24,RA,,0.24,WeatherDisplay:10.37,2013-05-23 18:18:00,
2013-05-23 14:23:00,73.3,69.5,29.85,ESE,116,0.0,0.0,88,0.26,RA,,0.26,WeatherDisplay:10.37,2013-05-23 18:23:00,
2013-05-23 14:29:00,72.8,69.7,29.86,SE,130,2.3,2.3,90,0.29,RA,,0.29,WeatherDisplay:10.37,2013-05-23 18:29:00,
2013-05-23 14:34:00,72.6,69.8,29.85,WSW,240,1.1,1.1,91,0.36,RA,,0.36,WeatherDisplay:10.37,2013-05-23 18:34:00,
2013-05-23 14:39:00,72.3,69.8,29.85,South,176,0.0,0.0,92,0.46,RA,,0.46,WeatherDisplay:10.37,2013-05-23 18:39:00,
2013-05-23 14:44:00,71.4,68.3,29.85,WSW,250,5.8,5.8,90,0.68,RA,,0.71,WeatherDisplay:10.37,2013-05-23 18:44:00,
2013-05-23 14:49:00,70.2,67.1,29.86,SW,225,1.1,1.1,90,0.88,RA,,0.89,WeatherDisplay:10.37,2013-05-23 18:49:00,
2013-05-23 14:54:00,69.4,66.7,29.87,North,349,3.5,3.5,91,1.09,RA,,1.19,WeatherDisplay:10.37,2013-05-23 18:54:00,
2013-05-23 14:59:00,68.5,66.1,29.86,SSE,149,3.5,3.5,92,1.24,RA,,1.34,WeatherDisplay:10.37,2013-05-23 18:59:00,
2013-05-23 15:04:00,67.9,65.2,29.86,WSW,243,1.1,1.1,91,1.21,RA,,1.35,WeatherDisplay:10.37,2013-05-23 19:04:00,
2013-05-23 15:09:00,67.5,64.8,29.86,WSW,243,1.1,1.1,91,1.18,RA,,1.37,WeatherDisplay:10.37,2013-05-23 19:09:00,
2013-05-23 15:14:00,67.3,64.9,29.86,WSW,243,0.0,0.0,92,1.18,RA,,1.38,WeatherDisplay:10.37,2013-05-23 19:14:00,
2013-05-23 15:19:00,67.2,65.1,29.85,NNE,13,2.3,2.3,93,1.19,RA,,1.43,WeatherDisplay:10.37,2013-05-23 19:19:00,
2013-05-23 15:24:00,67.1,65.3,29.84,NNE,13,1.1,1.1,94,1.19,RA,,1.45,WeatherDisplay:10.37,2013-05-23 19:24:00,
2013-05-23 15:29:00,67.1,65.6,29.84,NNE,17,0.0,0.0,95,1.17,RA,,1.46,WeatherDisplay:10.37,2013-05-23 19:29:00,
2013-05-23 15:34:00,67.1,65.6,29.84,East,87,0.0,0.0,95,1.10,RA,,1.46,WeatherDisplay:10.37,2013-05-23 19:34:00,
2013-05-23 15:39:00,67.2,65.7,29.85,ESE,113,0.0,0.0,95,1.00,CLR,,1.46,WeatherDisplay:10.37,2013-05-23 19:39:00,
2013-05-23 15:44:00,67.4,65.9,29.84,ESE,113,0.0,0.0,95,0.79,RA,,1.47,WeatherDisplay:10.37,2013-05-23 19:44:00,
2013-05-23 15:49:00,67.6,66.4,29.84,SE,131,0.0,0.0,96,0.59,RA,,1.47,WeatherDisplay:10.37,2013-05-23 19:49:00,
2013-05-23 15:54:00,67.8,66.6,29.84,SE,134,0.0,0.0,96,0.31,CLR,,1.47,WeatherDisplay:10.37,2013-05-23 19:54:00,
2013-05-23 15:59:00,67.9,66.7,29.84,SE,134,0.0,0.0,96,0.13,CLR,,1.47,WeatherDisplay:10.37,2013-05-23 19:59:00,
2013-05-23 16:04:00,68.0,66.8,29.84,SE,137,0.0,0.0,96,0.12,CLR,,1.47,WeatherDisplay:10.37,2013-05-23 20:04:00,
2013-05-23 16:09:00,68.3,67.1,29.84,SSE,158,0.0,0.0,96,0.11,CLR,,1.47,WeatherDisplay:10.37,2013-05-23 20:09:00,
2013-05-23 16:14:00,68.5,67.3,29.83,SE,135,0.0,0.0,96,0.09,CLR,,1.47,WeatherDisplay:10.37,2013-05-23 20:14:00,
2013-05-23 16:19:00,68.7,67.5,29.83,WSW,249,0.0,0.0,96,0.04,CLR,,1.47,WeatherDisplay:10.37,2013-05-23 20:19:00,
2013-05-23 16:24:00,68.8,67.6,29.83,SW,231,0.0,0.0,96,0.02,CLR,,1.47,WeatherDisplay:10.37,2013-05-23 20:24:00,
2013-05-23 16:29:00,69.1,67.9,29.83,SW,231,0.0,0.0,96,0.01,CLR,,1.47,WeatherDisplay:10.37,2013-05-23 20:29:00,
2013-05-23 16:34:00,69.3,68.1,29.83,WNW,301,1.1,0.0,96,0.01,CLR,,1.47,WeatherDisplay:10.37,2013-05-23 20:34:00,
2013-05-23 16:39:00,69.8,68.6,29.83,NNW,344,3.5,3.5,96,0.01,CLR,,1.47,WeatherDisplay:10.37,2013-05-23 20:39:00,
2013-05-23 16:44:00,70.2,69.0,29.83,WSW,242,0.0,0.0,96,0.00,CLR,,1.47,WeatherDisplay:10.37,2013-05-23 20:44:00,
2013-05-23 16:49:00,70.4,69.2,29.82,NW,305,1.1,1.1,96,0.00,CLR,,1.47,WeatherDisplay:10.37,2013-05-23 20:49:00,
2013-05-23 16:54:00,70.6,69.4,29.83,NE,51,0.0,0.0,96,0.00,CLR,,1.47,WeatherDisplay:10.37,2013-05-23 20:54:00,
2013-05-23 16:59:00,70.7,69.2,29.82,ENE,65,0.0,0.0,95,0.00,CLR,,1.47,WeatherDisplay:10.37,2013-05-23 20:59:00,
2013-05-23 17:04:00,70.8,69.3,29.83,ENE,64,0.0,0.0,95,0.00,CLR,,1.47,WeatherDisplay:10.37,2013-05-23 21:04:00,
2013-05-23 17:09:00,70.9,69.4,29.83,ESE,112,0.0,0.0,95,0.00,CLR,,1.47,WeatherDisplay:10.37,2013-05-23 21:09:00,
2013-05-23 17:14:00,70.8,69.3,29.83,WSW,249,0.0,0.0,95,0.00,CLR,,1.47,WeatherDisplay:10.37,2013-05-23 21:14:00,
2013-05-23 17:19:00,70.8,69.3,29.83,WSW,251,0.0,0.0,95,0.00,CLR,,1.47,WeatherDisplay:10.37,2013-05-23 21:19:00,
2013-05-23 17:24:00,70.9,69.4,29.84,WSW,251,0.0,0.0,95,0.00,CLR,,1.47,WeatherDisplay:10.37,2013-05-23 21:24:00,
2013-05-23 17:29:00,70.9,69.4,29.84,WSW,251,0.0,0.0,95,0.00,CLR,,1.47,WeatherDisplay:10.37,2013-05-23 21:29:00,
2013-05-23 17:34:00,71.0,69.5,29.83,WSW,251,0.0,0.0,95,0.00,CLR,,1.47,WeatherDisplay:10.37,2013-05-23 21:34:00,
2013-05-23 17:39:00,70.9,69.1,29.83,South,178,0.0,0.0,94,0.00,CLR,,1.47,WeatherDisplay:10.37,2013-05-23 21:39:00,
2013-05-23 17:44:00,70.8,69.0,29.83,South,176,0.0,0.0,94,0.00,CLR,,1.47,WeatherDisplay:10.37,2013-05-23 21:44:00,
2013-05-23 17:49:00,70.9,69.1,29.83,South,177,0.0,0.0,94,0.00,CLR,,1.47,WeatherDisplay:10.37,2013-05-23 21:49:00,
2013-05-23 17:54:00,71.0,69.5,29.83,SSW,202,0.0,0.0,95,0.00,CLR,,1.47,WeatherDisplay:10.37,2013-05-23 21:54:00,
2013-05-23 17:59:00,71.1,69.3,29.82,SSW,203,0.0,0.0,94,0.00,CLR,,1.47,WeatherDisplay:10.37,2013-05-23 21:59:00,
2013-05-23 18:04:00,70.9,68.8,29.83,SSW,206,0.0,0.0,93,0.00,CLR,,1.47,WeatherDisplay:10.37,2013-05-23 22:04:00,
2013-05-23 18:09:00,71.0,68.9,29.83,SSW,201,0.0,0.0,93,0.00,CLR,,1.47,WeatherDisplay:10.37,2013-05-23 22:09:00,
2013-05-23 18:14:00,71.1,69.3,29.83,SSW,201,0.0,0.0,94,0.00,CLR,,1.47,WeatherDisplay:10.37,2013-05-23 22:14:00,
2013-05-23 18:19:00,71.1,69.3,29.83,SSW,200,0.0,0.0,94,0.00,CLR,,1.47,WeatherDisplay:10.37,2013-05-23 22:19:00,
2013-05-23 18:24:00,71.2,69.4,29.83,SSW,200,0.0,0.0,94,0.00,CLR,,1.47,WeatherDisplay:10.37,2013-05-23 22:24:00,
2013-05-23 18:29:00,71.2,69.4,29.83,SE,136,0.0,0.0,94,0.00,CLR,,1.47,WeatherDisplay:10.37,2013-05-23 22:29:00,
2013-05-23 18:34:00,71.1,69.3,29.83,SE,136,0.0,0.0,94,0.00,CLR,,1.47,WeatherDisplay:10.37,2013-05-23 22:34:00,
2013-05-23 18:39:00,71.1,69.3,29.83,ESE,106,0.0,0.0,94,0.00,CLR,,1.47,WeatherDisplay:10.37,2013-05-23 22:39:00,
2013-05-23 18:44:00,71.0,69.2,29.83,ESE,107,0.0,0.0,94,0.00,CLR,,1.47,WeatherDisplay:10.37,2013-05-23 22:44:00,
2013-05-23 18:49:00,70.9,69.1,29.83,SSE,147,0.0,0.0,94,0.00,CLR,,1.47,WeatherDisplay:10.37,2013-05-23 22:49:00,
2013-05-23 18:54:00,70.9,69.1,29.82,SE,145,0.0,0.0,94,0.00,CLR,,1.47,WeatherDisplay:10.37,2013-05-23 22:54:00,
2013-05-23 18:59:00,70.8,69.3,29.83,SSE,155,0.0,0.0,95,0.00,CLR,,1.47,WeatherDisplay:10.37,2013-05-23 22:59:00,
2013-05-23 19:04:00,70.7,69.2,29.82,SSW,200,0.0,0.0,95,0.00,CLR,,1.47,WeatherDisplay:10.37,2013-05-23 23:04:00,
2013-05-23 19:10:00,70.7,69.2,29.82,SSW,200,0.0,0.0,95,0.00,CLR,,1.47,WeatherDisplay:10.37,2013-05-23 23:10:00,
2013-05-23 19:15:00,70.6,69.1,29.82,East,101,1.1,1.1,95,0.00,CLR,,1.47,WeatherDisplay:10.37,2013-05-23 23:15:00,
2013-05-23 19:20:00,70.7,69.2,29.82,SE,141,0.0,0.0,95,0.00,CLR,,1.47,WeatherDisplay:10.37,2013-05-23 23:20:00,
2013-05-23 19:25:00,70.7,69.2,29.82,SE,141,0.0,0.0,95,0.00,CLR,,1.47,WeatherDisplay:10.37,2013-05-23 23:25:00,
2013-05-23 19:30:00,70.7,69.2,29.82,SE,146,0.0,0.0,95,0.00,CLR,,1.47,WeatherDisplay:10.37,2013-05-23 23:30:00,
2013-05-23 19:35:00,70.6,69.1,29.82,SE,136,1.1,1.1,95,0.00,CLR,,1.47,WeatherDisplay:10.37,2013-05-23 23:35:00,
2013-05-23 19:40:00,70.5,69.0,29.82,NW,320,0.0,0.0,95,0.00,CLR,,1.47,WeatherDisplay:10.37,2013-05-23 23:40:00,
2013-05-23 19:45:00,70.5,69.0,29.82,SE,139,0.0,0.0,95,0.00,CLR,,1.47,WeatherDisplay:10.37,2013-05-23 23:45:00,
2013-05-23 19:50:00,70.4,69.2,29.82,South,187,2.3,0.0,96,0.00,CLR,,1.47,WeatherDisplay:10.37,2013-05-23 23:50:00,
2013-05-23 19:55:00,70.3,69.1,29.82,SE,125,4.6,4.6,96,0.00,CLR,,1.47,WeatherDisplay:10.37,2013-05-23 23:55:00,
2013-05-23 20:00:00,70.2,69.0,29.82,SSE,149,1.1,1.1,96,0.00,CLR,,1.47,WeatherDisplay:10.37,2013-05-24 00:00:00,
2013-05-23 20:05:00,70.2,69.0,29.82,SE,140,1.1,0.0,96,0.00,CLR,,1.47,WeatherDisplay:10.37,2013-05-24 00:05:00,
2013-05-23 20:10:00,70.1,68.9,29.83,SW,233,0.0,0.0,96,0.00,CLR,,1.47,WeatherDisplay:10.37,2013-05-24 00:10:00,
2013-05-23 20:15:00,69.9,68.7,29.82,WSW,240,0.0,0.0,96,0.00,CLR,,1.47,WeatherDisplay:10.37,2013-05-24 00:15:00,
2013-05-23 20:20:00,69.8,68.6,29.83,WSW,240,0.0,0.0,96,0.00,CLR,,1.47,WeatherDisplay:10.37,2013-05-24 00:20:00,
2013-05-23 20:25:00,69.7,68.5,29.83,ESE,117,3.5,3.5,96,0.00,CLR,,1.47,WeatherDisplay:10.37,2013-05-24 00:25:00,
2013-05-23 20:30:00,69.6,68.4,29.82,ESE,110,0.0,0.0,96,0.00,CLR,,1.47,WeatherDisplay:10.37,2013-05-24 00:30:00,
2013-05-23 20:35:00,69.6,68.4,29.82,ESE,110,0.0,0.0,96,0.00,CLR,,1.47,WeatherDisplay:10.37,2013-05-24 00:35:00,
2013-05-23 20:40:00,69.5,68.3,29.82,SE,126,1.0,0.0,96,0.00,CLR,,1.47,WeatherDisplay:10.37,2013-05-24 00:40:00,
2013-05-23 20:45:00,69.5,68.3,29.82,ESE,121,1.1,0.0,96,0.00,CLR,,1.47,WeatherDisplay:10.37,2013-05-24 00:45:00,
2013-05-23 20:50:00,69.4,68.2,29.82,East,85,0.0,0.0,96,0.00,CLR,,1.47,WeatherDisplay:10.37,2013-05-24 00:50:00,
2013-05-23 20:55:00,69.4,68.2,29.82,SSE,160,0.0,0.0,96,0.00,CLR,,1.47,WeatherDisplay:10.37,2013-05-24 00:55:00,
2013-05-23 21:00:00,69.3,68.1,29.82,SW,218,0.0,0.0,96,0.00,CLR,,1.47,WeatherDisplay:10.37,2013-05-24 01:00:00,
2013-05-23 21:05:00,69.2,68.0,29.82,SE,139,1.1,1.1,96,0.00,CLR,,1.47,WeatherDisplay:10.37,2013-05-24 01:05:00,
2013-05-23 21:10:00,69.1,67.9,29.82,South,174,0.0,0.0,96,0.00,CLR,,1.47,WeatherDisplay:10.37,2013-05-24 01:10:00,
2013-05-23 21:15:00,69.0,68.1,29.82,South,175,0.0,0.0,97,0.00,CLR,,1.47,WeatherDisplay:10.37,2013-05-24 01:15:00,
2013-05-23 21:20:00,69.0,68.1,29.82,South,174,0.0,0.0,97,0.00,CLR,,1.47,WeatherDisplay:10.37,2013-05-24 01:20:00,
2013-05-23 21:25:00,69.0,68.1,29.82,South,170,0.0,0.0,97,0.00,CLR,,1.47,WeatherDisplay:10.37,2013-05-24 01:25:00,
2013-05-23 21:30:00,68.9,68.0,29.83,South,175,0.0,0.0,97,0.00,CLR,,1.47,WeatherDisplay:10.37,2013-05-24 01:30:00,
2013-05-23 21:35:00,68.9,68.0,29.83,SSE,160,3.5,3.5,97,0.00,CLR,,1.47,WeatherDisplay:10.37,2013-05-24 01:35:00,
2013-05-23 21:40:00,68.9,68.0,29.83,SW,215,0.0,0.1,97,0.00,CLR,,1.47,WeatherDisplay:10.37,2013-05-24 01:40:00,
2013-05-23 21:45:00,68.8,67.9,29.83,WSW,253,1.1,0.0,97,0.00,CLR,,1.47,WeatherDisplay:10.37,2013-05-24 01:45:00,
2013-05-23 21:50:00,68.8,67.9,29.83,West,278,1.1,1.1,97,0.00,CLR,,1.47,WeatherDisplay:10.37,2013-05-24 01:50:00,
2013-05-23 21:55:00,68.8,67.9,29.83,WSW,240,0.0,0.0,97,0.00,CLR,,1.47,WeatherDisplay:10.37,2013-05-24 01:55:00,
2013-05-23 22:00:00,68.7,67.8,29.84,WSW,240,0.0,0.0,97,0.00,CLR,,1.47,WeatherDisplay:10.37,2013-05-24 02:00:00,
2013-05-23 22:05:00,68.7,67.8,29.84,WSW,242,0.0,0.0,97,0.00,CLR,,1.47,WeatherDisplay:10.37,2013-05-24 02:05:00,
2013-05-23 22:10:00,68.7,67.8,29.84,WSW,240,0.0,0.0,97,0.00,CLR,,1.47,WeatherDisplay:10.37,2013-05-24 02:10:00,
2013-05-23 22:15:00,68.6,67.7,29.84,WSW,240,0.0,0.0,97,0.00,CLR,,1.47,WeatherDisplay:10.37,2013-05-24 02:15:00,
2013-05-23 22:20:00,68.6,67.7,29.84,WSW,240,0.0,0.0,97,0.00,CLR,,1.47,WeatherDisplay:10.37,2013-05-24 02:20:00,
2013-05-23 22:25:00,68.6,67.7,29.84,WSW,240,0.0,0.0,97,0.00,CLR,,1.47,WeatherDisplay:10.37,2013-05-24 02:25:00,
2013-05-23 22:30:00,68.6,67.7,29.85,WSW,242,0.0,0.0,97,0.00,CLR,,1.47,WeatherDisplay:10.37,2013-05-24 02:30:00,
2013-05-23 22:35:00,68.6,67.7,29.85,WSW,242,0.0,0.0,97,0.00,CLR,,1.47,WeatherDisplay:10.37,2013-05-24 02:35:00,
2013-05-23 22:40:00,68.6,67.7,29.84,WSW,240,0.0,0.0,97,0.00,CLR,,1.47,WeatherDisplay:10.37,2013-05-24 02:40:00,
2013-05-23 22:45:00,68.5,67.6,29.85,WSW,240,0.0,0.0,97,0.00,CLR,,1.47,WeatherDisplay:10.37,2013-05-24 02:45:00,
2013-05-23 22:50:00,68.4,67.5,29.85,WSW,240,0.0,0.0,97,0.00,CLR,,1.47,WeatherDisplay:10.37,2013-05-24 02:50:00,
2013-05-23 22:55:00,68.4,67.5,29.84,WSW,240,0.0,0.0,97,0.00,CLR,,1.47,WeatherDisplay:10.37,2013-05-24 02:55:00,
2013-05-23 23:00:00,68.4,67.5,29.84,WSW,240,0.0,0.0,97,0.00,CLR,,1.47,WeatherDisplay:10.37,2013-05-24 03:00:00,
2013-05-23 23:05:00,68.3,67.4,29.84,SW,218,0.0,0.0,97,0.00,CLR,,1.47,WeatherDisplay:10.37,2013-05-24 03:05:00,
2013-05-23 23:10:00,68.2,67.3,29.84,SW,218,0.0,0.0,97,0.00,CLR,,1.47,WeatherDisplay:10.37,2013-05-24 03:10:00,
2013-05-23 23:15:00,68.1,67.2,29.84,SW,218,0.0,0.0,97,0.00,CLR,,1.47,WeatherDisplay:10.37,2013-05-24 03:15:00,
2013-05-23 23:20:00,68.0,67.1,29.84,SW,218,0.0,0.0,97,0.00,CLR,,1.47,WeatherDisplay:10.37,2013-05-24 03:20:00,
2013-05-23 23:25:00,67.9,67.0,29.84,SW,218,0.0,0.0,97,0.00,CLR,,1.47,WeatherDisplay:10.37,2013-05-24 03:25:00,
2013-05-23 23:30:00,67.8,66.9,29.83,SW,218,0.0,0.0,97,0.00,CLR,,1.47,WeatherDisplay:10.37,2013-05-24 03:30:00,
2013-05-23 23:35:00,67.7,66.8,29.83,SW,218,0.0,0.0,97,0.00,CLR,,1.47,WeatherDisplay:10.37,2013-05-24 03:35:00,
2013-05-23 23:40:00,67.6,66.7,29.83,SW,218,0.0,0.0,97,0.00,CLR,,1.47,WeatherDisplay:10.37,2013-05-24 03:40:00,
2013-05-23 23:45:00,67.7,67.1,29.83,SW,218,0.0,0.0,98,0.00,CLR,,1.47,WeatherDisplay:10.37,2013-05-24 03:45:00,
2013-05-23 23:50:00,67.6,67.0,29.83,SW,218,0.0,0.0,98,0.00,CLR,,1.47,WeatherDisplay:10.37,2013-05-24 03:50:00,
2013-05-23 23:55:00,67.5,66.9,29.83,SW,218,0.0,0.0,98,0.00,CLR,,1.47,WeatherDisplay:10.37,2013-05-24 03:55:00,